FENGYUN 1C DEB

Satellite information

Favourite Embed

Satellite Type and Status

DEBRISIN ORBIT

Key statistics

Satellite FENGYUN 1C DEB at a glance.

Uptime

9714

Days in orbit

Revolutions

≈ 14.1

Per day

Orbit

SSO

Sun Synchronous Orbit

Inclination

99.2

Latest

Satellite identification and parameters

Extended collection of information and parameters for FENGYUN 1C DEB.

Object identification

Identified? True

Debris? True

Object name: FENGYUN 1C DEB

International designator: 1999-025ALP

Object number (NORAD): 30573

Object ID (CCSDS): 30573

Country: PEOPLES REPUBLIC OF CHINA (PRC)

Current information (Y/N): Y

RCS size: SMALL

Orbital parameters

Period: 101.851 minutes

Inclination: 99.2271 deg

SMA: 7224.432 km

Apoapsis: 910.045 km

Periapsis: 782.549 km

RAAN: 23.7345 deg

Eccentricy: 0.0088239

Argument of periapsis: 275.8091 deg

Mean anomaly: 161.4822 deg

Mean motion: 14.13830045 rev/day

Mean motion (dot): 0.00005109 rev/day2

B* drag term: 0.0026218 1/REarth

Two-line elements (TLE)

Creation date: Dec. 12, 2025, 7:26 a.m.

Reference frame: TEME

Reference center: EARTH

Epoch: Dec. 12, 2025, 12:30 a.m. UTC

TLE line 0: 0 FENGYUN 1C DEB

TLE line 1: 1 30573U 99025ALP 25346.02117411 .00005109 00000-0 26218-2 0 9996

TLE line 2: 2 30573 99.2271 23.7345 0088239 275.8091 161.4822 14.13830045961870

Live tracking on map

Real-time ground track for satellite FENGYUN 1C DEB.

In-orbit conjunctions

A list of the most updated potential collisions computed for object FENGYUN 1C DEB.

Target Orbit TCA Probability of collision Miss distance Type
CZ-2C DEB SSO 2025-07-02 09:21:00 0.0001781649 280.0 (m) DEBRIS
METEOR 2-17 DEB LEO 2025-03-09 15:20:43 0.000455287 4.0 (m) DEBRIS
FENGYUN 1C DEB SSO 2024-11-13 00:18:24 0.0001013604 162.0 (m) DEBRIS

Associated space launch

Chinese polar orbiting meteorological satellite

FENGYUN 1C DEB was lifted into orbit during the mission ‘Long March 4B | Feng Yun 1C’, on board a Long March 4B space rocket.

The launch took place on May 10, 1999, 1:33 a.m. from Launch Complex 7.

For more information about the launch, click the button.

Launch to space Long March 4B | Feng Yun 1C
Long March 4B | Feng Yun 1C

Agency: N/A

Status: Launch Successful

Launch date: May 10, 1999, 1:33 a.m. UTC

Rocket: Long March 4B

Launch pad: Launch Complex 7

Location: Taiyuan Satellite Launch Center, People's Republic of China

...

Latest news about this satellite

There are no fresh news available about this satellite. Check back as we update our databases every day.


Newsletter sign-up

Weekly statistics, charts and insights to help you stay on top of the space industry.